Weather History for South Bend, IN

Change the Weather History Date:

Tuesday, July 23, 2013

  Actual Average Record
Temperature  
Mean Temperature 69 °F 73 °F  
Max Temperature 79 °F 83 °F 106 °F (1934)
Min Temperature 58 °F 63 °F 45 °F (1947)
Degree Days  
Heating Degree Days 0 0  
Month to date heating degree days 3 0  
Since 1 June heating degree days 40 44  
Since 1 July heating degree days 3 0  
Cooling Degree Days 4 8  
Month to date cooling degree days 223 184  
Year to date cooling degree days 484 405  
Since 1 June cooling degree days 388 349  
Growing Degree Days 20 (Base 50)    
Moisture  
Dew Point 62 °F    
Average Humidity 72    
Maximum Humidity 87    
Minimum Humidity 53    
Precipitation  
Precipitation 0.14 in 0.14 in 0.67 in (1959)
Month to date precipitation 3.00 2.95  
Year to date precipitation 23.73 20.46  
Snow  
Snow 0.00 in - - ()
Month to date snowfall 0.0  
Since 1 June snowfall 0.0  
Snow Depth 0.00 in    
Sea Level Pressure  
Sea Level Pressure 29.80 in    
Wind  
Wind Speed 13 mph (WNW)    
Max Wind Speed 28 mph    
Max Gust Speed 33 mph    
Visibility 10 miles    
Events Rain , Thunderstorm    
T = Trace of Precipitation, MM = Missing Value Source: NWS Daily Summary

Daily Weather History Graph

Daily Weather History Graph

Search for Another Location

Airport:

Trip Planner

Search our weather history database for the weather conditions in past years. The results will help you decide how hot, cold, wet, or windy it might be!

Date:

Astronomy

Jul. 23, 2013 Rise Set
Actual Time 6:31 AM EDT 9:11 PM EDT
Civil Twilight 5:58 AM EDT 9:44 PM EDT
Nautical Twilight 5:18 AM EDT 10:24 PM EDT
Astronomical Twilight 4:32 AM EDT 11:10 PM EDT
Moon 9:37 PM EDT (7/23) 7:40 AM EDT (7/23)
Length of Visible Light 15h 45m
Length of Day
14h 40m
Full, 99% of the Moon is Illuminated
Jul 23
Full
Jul 29
Last Quarter
Aug 6
New
Aug 14
First Quarter
Aug 20
Full

Hourly Weather History & Observations

Time (EDT) Temp. Dew Point Humidity Pressure Visibility Wind Dir Wind Speed Gust Speed Precip Events Conditions
12:54 AM 73.0 °F 66.9 °F 81% 29.80 in 10.0 mi SSW 5.8 mph - N/A   Clear
1:54 AM 73.9 °F 68.0 °F 82% 29.79 in 10.0 mi SSW 8.1 mph - N/A   Scattered Clouds
2:54 AM 73.0 °F 68.0 °F 84% 29.75 in 10.0 mi SW 6.9 mph - N/A Thunderstorm Mostly Cloudy
3:42 AM 71.6 °F 66.2 °F 83% 29.76 in 10.0 mi SSW 8.1 mph - 0.13 in   Scattered Clouds
3:54 AM 70.0 °F 66.0 °F 87% 29.73 in 10.0 mi SW 8.1 mph - 0.13 in   Clear
4:54 AM 71.1 °F 66.9 °F 87% 29.72 in 10.0 mi SSW 5.8 mph - N/A   Clear
5:54 AM 71.1 °F 66.0 °F 84% 29.72 in 10.0 mi SW 3.5 mph - 0.01 in Rain Light Rain
6:54 AM 69.1 °F 64.9 °F 87% 29.73 in 10.0 mi WSW 6.9 mph - N/A   Clear
7:54 AM 70.0 °F 64.9 °F 84% 29.76 in 10.0 mi WSW 9.2 mph - N/A   Clear
8:54 AM 72.0 °F 64.0 °F 76% 29.77 in 10.0 mi West 10.4 mph - N/A   Clear
9:54 AM 75.0 °F 64.0 °F 69% 29.76 in 10.0 mi West 13.8 mph - N/A   Clear
10:54 AM 77.0 °F 64.0 °F 64% 29.77 in 10.0 mi WNW 11.5 mph - N/A   Partly Cloudy
11:54 AM 78.1 °F 64.9 °F 64% 29.78 in 10.0 mi WNW 10.4 mph - N/A   Partly Cloudy
12:12 PM 78.8 °F 64.4 °F 61% 29.80 in 10.0 mi WNW 12.7 mph - N/A   Mostly Cloudy
12:54 PM 78.1 °F 66.0 °F 66% 29.79 in 10.0 mi WNW 13.8 mph 17.3 mph N/A   Mostly Cloudy
1:54 PM 75.0 °F 64.9 °F 71% 29.80 in 10.0 mi NW 13.8 mph 19.6 mph N/A   Mostly Cloudy
2:54 PM 72.0 °F 62.1 °F 71% 29.81 in 10.0 mi NNW 17.3 mph 24.2 mph N/A   Overcast
3:54 PM 71.1 °F 59.0 °F 66% 29.83 in 10.0 mi NNW 19.6 mph 26.5 mph N/A   Overcast
4:32 PM 73.4 °F 59.0 °F 61% 29.84 in 10.0 mi North 21.9 mph 28.8 mph N/A   Mostly Cloudy
4:54 PM 73.9 °F 57.0 °F 55% 29.82 in 10.0 mi North 24.2 mph 27.6 mph N/A   Scattered Clouds
5:54 PM 72.0 °F 55.0 °F 55% 29.83 in 10.0 mi North 20.7 mph 27.6 mph N/A   Clear
6:54 PM 70.0 °F 55.0 °F 59% 29.83 in 10.0 mi NNW 23.0 mph 32.2 mph N/A   Clear
7:54 PM 66.9 °F 54.0 °F 63% 29.86 in 10.0 mi NNW 21.9 mph 28.8 mph N/A   Partly Cloudy
8:54 PM 63.0 °F 52.0 °F 67% 29.87 in 10.0 mi North 17.3 mph 26.5 mph N/A   Partly Cloudy
9:54 PM 62.1 °F 54.0 °F 75% 29.87 in 10.0 mi North 12.7 mph 21.9 mph N/A   Clear
10:54 PM 61.0 °F 53.1 °F 75% 29.91 in 10.0 mi NNW 9.2 mph - N/A   Clear
11:54 PM 60.1 °F 50.0 °F 69% 29.94 in 10.0 mi North 10.4 mph - N/A   Clear